Location: *
(8.3833°S, 175.4167°W)
Time: 05:13:13
(UTC+00:00)

Daily predictions for brighter satellites

Satellite Brightness Start Highest point End
(mag) Time Altitude Azimuth Time Altitude Azimuth Time Altitude Azimuth
FALCON 9 R/B 4.3 05:10:16 10° NW 05:17:23 72° NE 06:13:40 11° ESE
Milstar 3 Cent rocket 2.2 05:40:51 10° WSW 05:45:30 87° NNW 05:52:01 10° ENE
STARLINK-1067 4.5 05:45:26 10° N 05:49:10 34° ENE 05:52:57 10° ESE
Cosmos 1933 Rocket 4.1 05:46:03 10° NNE 05:50:04 38° E 05:54:06 10° SSE
Cosmos 1633 Rocket 4.1 05:47:56 10° NNW 05:52:11 51° W 05:56:29 10° S
STARLINK-1058 4.3 05:50:16 10° NNW 05:54:07 39° ENE 05:58:00 10° SE
Meteor 1-25 Rocket 4.3 05:50:06 10° N 05:55:33 57° E 06:00:59 10° SSE
BREEZE-M DEB (TANK) 4.3 05:53:48 10° WNW 05:56:02 33° SW 05:59:51 10° SSE
Cosmos 2100 Rocket 4.0 05:51:01 10° N 05:57:16 81° E 06:03:30 10° S
STARLINK-1043 4.1 05:55:08 10° NNW 05:59:06 45° ENE 06:03:04 10° SE
Centaur D AC-29 3.7 05:57:35 10° WSW 06:05:17 18° SSW 06:08:53 10° SSE
Delta 7925 Rocket 3.6 06:02:24 10° NW 06:08:22 70° NNE 06:12:34 14° ESE
STARLINK-1063 3.7 06:04:57 10° NNW 06:09:01 63° NE 06:12:44 12° SE
YAOGAN 6 3.8 06:09:00 10° S 06:12:30 44° WSW 06:15:55 10° NNW
STARLINK-1064 3.6 06:09:53 10° NNW 06:13:59 73° ENE 06:17:31 14° SE
Cosmos 2061 Rocket 4.0 06:07:47 10° N 06:14:03 67° E 06:20:16 10° SSE
STARLINK-1041 3.5 06:14:50 10° NNW 06:18:58 85° ENE 06:22:18 15° SE
Meteor 1-20 Rocket 4.4 06:13:39 10° N 06:19:13 76° W 06:24:57 10° S
Okean-O 2.6 06:17:56 10° SSE 06:22:20 63° ENE 06:26:42 10° N
STARLINK-1038 3.6 06:19:48 10° NW 06:23:55 82° WSW 06:27:06 17° SSE
Cosmos 2016 Rocket 3.9 06:18:24 10° N 06:24:33 84° E 06:30:50 10° S
Cosmos 1864 Rocket 4.4 06:19:27 10° N 06:25:30 67° E 06:31:36 10° S
STARLINK-1046 3.8 06:24:47 10° NW 06:28:53 70° SW 06:31:52 18° SSE
STARLINK-1039 4.0 06:29:47 10° NW 06:33:52 60° SW 06:36:39 19° SSE
ARIANE 5 DEB (SYLDA) 3.5 06:26:15 10° W 06:36:03 74° N 06:37:51 29° E
Geosat 3.9 06:33:59 13° SSE 06:38:26 82° ENE 06:43:26 10° NNW
STARLINK-1045 4.3 06:34:50 10° NW 06:38:51 51° SW 06:41:28 20° SSE
Cosmos 1500 4.4 06:35:57 10° NNE 06:38:26 25° ENE 06:38:26 25° ENE
Ariane H10+ 3.2 06:38:27 10° NW 06:39:00 13° NNW 06:39:00 13° NNW
Cosmos 494 Rocket 3.8 06:35:43 10° N 06:40:49 80° ENE 06:44:55 16° SSE
Cosmos 405 Rocket 3.8 06:40:01 10° NNE 06:42:33 27° ENE 06:42:33 27° ENE
Cosmos 1939 Rocket 2.7 06:43:31 19° S 06:46:18 88° WSW 06:50:18 10° NNW
Palapa 6 Rocket 4.4 06:44:02 10° SW 06:47:47 25° SSE 06:47:53 25° SSE
GPS 2-14 Rocket1 3.1 06:47:14 10° WSW 06:51:22 63° NNW 06:52:56 35° NE
CZ-4 R/B 1.6 06:48:46 18° S 06:51:47 74° W 06:55:55 10° NNW
DELTA-4 R/B 3.6 06:46:33 10° W 06:52:08 42° NNW 06:53:46 24° NE
Cosmos 2242 Rocket 3.5 06:53:22 41° SSE 06:54:38 58° E 06:58:57 10° NNE
Cosmos 1624 Rocket 3.9 06:50:28 10° SSW 06:55:44 89° ESE 07:01:01 10° NNE
SL-16 R/B 4.3 06:51:39 10° NW 06:56:04 24° WSW 07:00:32 10° SSW
YAOGAN 1 2.4 06:54:09 31° SSE 06:56:13 90° SE 07:00:32 10° NNW
Cosmos 1269 Rocket 3.9 06:55:27 10° N 07:00:41 78° ENE 07:02:33 41° SSE
CSL-04 Debris 4.0 06:59:41 36° SSE 07:01:52 70° ENE 07:07:12 10° N
deb Ariane 4.0 06:53:01 10° W 07:03:30 61° NNW 07:04:21 47° NE
H-2A R/B 3.7 07:10:48 19° NNE 07:10:48 19° NNE 07:12:26 10° NNE
Atlas Centaur 2 3.3 07:00:52 10° NW 07:08:48 58° NNE 07:11:39 41° E
Palapa B4 Rocket 4.3 07:06:51 10° NW 07:09:50 28° NNE 07:09:50 28° NNE
Cosmos 44 4.0 07:08:17 10° N 07:12:17 42° NE 07:12:17 42° NE
CZ-2C R/B 2.6 07:17:44 10° NNE 07:23:20 86° ESE 07:24:02 69° S
Cosmos 2278 Rocket 2.8 07:19:29 10° SSW 07:25:01 56° WNW 07:30:32 10° N
Cosmos 1943 3.1 07:20:14 10° NNW 07:25:51 84° WSW 07:26:09 79° SSW
Cosmos 1603 4.0 07:20:22 10° NNW 07:26:01 63° WSW 07:27:30 47° SSW
Cosmos 2346 Rocket 4.5 07:20:37 10° S 07:26:39 75° W 07:32:40 10° N
CZ-2C R/B 4.3 07:33:18 30° N 07:33:18 30° N 07:35:59 10° N
OAO 3 Rocket 4.3 07:36:43 10° WNW 07:40:05 43° WNW 07:40:05 43° WNW
Tsikada Rocket 4.1 07:45:19 69° WSW 07:45:36 70° W 07:51:47 10° N
USA 267 3.6 07:52:28 55° N 07:52:28 55° N 07:57:36 10° NNW
ATLAS 5 CENTAUR R/B 3.3 08:15:45 10° WNW 08:18:03 38° WNW 08:18:03 38° WNW
